C/2015 V1 ( PanSTARRS )

Japanese version
Home page
Updated on February 13, 2018

---------------------------------------------------------------------

* Profile

Discovery Date November 2, 2015
Magnitude 20.2 mag
Discoverer Pan-STARRS 1 telescope (Haleakala)

* Pictures

* Orbital Elements

Epoch 2018 Jan. 2.0 TT = JDT 2458120.5
T 2017 Dec. 17.73523 TT                                 MPCW
q   4.2667965            (2000.0)            P               Q
z  -0.0001238      Peri.  179.63895     +0.95387893     +0.22988915
 +/-0.0000003      Node   197.19413     +0.27375761     -0.40230155
e   1.0005283      Incl.  139.22915     +0.12317367     -0.88617405
From 1839 observations 2015 Nov. 2-2018 Jan. 25, mean residual 0".4.

* Finding Charts

* Magnitudes Graph

        m1 = 6.0 + 5 log d + 10.0 log r

---------------------------------------------------------------------

The orbital elements are published on M.P.E.C. 2018-B155.
The charts are made with StellaNavigator Ver.8 (AstroArts).
The magnitudes graphs are made with Comet for Windows.

---------------------------------------------------------------------

Copyright(C) Seiichi Yoshida (comet@aerith.net). All rights reserved.